Regional Weather Roundup
Issued by NWS

Home | Current Version | Previous Version | Graphics & Text | Print | Product List | Glossary On
Versions: 1 2 3 4 5 6 7 8 9 10 11 12 13 14 15 16 17 18 19 20 21 22 23 24 25 26 27 28 29 30 31 32 33 34 35 36 37 38 39 40 41 42 43 44 45 46 47 48 49 50
000
ASUS43 KFSD 030410
RWRSD

WEATHER ROUNDUP FOR SOUTH DAKOTA
NATIONAL WEATHER SERVICE SIOUX FALLS SD
1100 PM CDT TUE SEP 02 2014

NOTE: "FAIR" INDICATES FEW OR NO CLOUDS BELOW 12,000 FEET WITH NO
SIGNIFICANT WEATHER AND/OR OBSTRUCTIONS TO VISIBILITY.


SDZ001>005-009-010-012>017-030500-
NORTHWEST AND NORTH CENTRAL SOUTH DAKOTA

CITY           SKY/WX    TMP DP  RH WIND       PRES   REMARKS
BUFFALO          N/A     58  48  69 E10       29.73F
FAITH            N/A     60  50  69 E10       29.78F
MOBRIDGE       CLEAR     57  54  89 N5        29.75S
$$

SDZ012>016-024>037-041>051-057-063-072>074-030500-
SOUTHWEST AND SOUTH CENTRAL SOUTH DAKOTA

CITY           SKY/WX    TMP DP  RH WIND       PRES   REMARKS
RAPID CTY ARPT CLEAR     56  47  71 CALM      29.80S
PIERRE         CLEAR     67  56  67 S8        29.75S
CUSTER         CLEAR     53  36  52 N3        29.94S
ELLSWORTH AFB  CLEAR     65  45  47 S2        29.79F
PHILIP         CLEAR     59  49  69 E5        29.76F
PINE RIDGE     CLEAR     58  49  72 NE3       29.81F
WINNER         FAIR      72  61  68 S16       29.78F
$$

SDZ004>011-016>023-039-040-030500-
NORTHEAST SOUTH DAKOTA

CITY           SKY/WX    TMP DP  RH WIND       PRES   REMARKS
ABERDEEN       PTCLDY    61  56  83 S8        29.77S
WATERTOWN      PTCLDY    61  56  83 S9        29.83S
SISSETON         N/A     67  56  67 SW12      29.77F
$$

SDZ017-020-022-023-036>040-048>070-030500-
SOUTHEAST SOUTH DAKOTA

CITY           SKY/WX    TMP DP  RH WIND       PRES   REMARKS
SIOUX FALLS    PTCLDY    68  58  70 S12       29.88S
HURON          CLEAR     66  58  75 S10       29.80S
CHAMBERLAIN    MOCLDY    67  58  73 SE9       29.79S
MITCHELL       CLEAR     68  61  78 S10       29.83S
YANKTON        CLEAR     64  57  77 SE8       29.87F
$$

ABBREVIATIONS USED IN REMARKS
   TC - TEMPERATURE IN CELSIUS
  WCI - WIND CHILL INDEX
   HX - HEAT INDEX
  VSB - VISIBILITY



USA.gov is the U.S. government's official web portal to all federal, state and local government web resources and services.